Regional Weather Roundup
Issued by NWS State College, PA

Home | Current Version | Previous Version | Graphics & Text | Print | Product List | Glossary On
Versions: 1 2 3 4 5 6 7 8 9 10 11 12 13 14 15 16 17 18 19 20 21 22 23 24 25 26 27 28 29 30 31 32 33 34 35 36 37 38 39 40 41 42 43 44 45 46 47 48 49 50
000
ASUS41 KCTP 261310
RWRCTP

REGIONAL WEATHER ROUNDUP
NATIONAL WEATHER SERVICE STATE COLLEGE PA
900 AM EDT TUE JUL 26 2016

Note: "fair" indicates few or no clouds below 12,000 feet with no
significant weather and/or obstructions to visibility.

* = STATION THAT DOES NOT REPORT PRECIPITATION /E.G. RAIN...SNOW...ETC/
    THUNDER OR FOG.

PAZ002>004-007>009-013>016-020>023-029>032-261400-
WESTERN PENNSYLVANIA

CITY           SKY/WX    TMP DP  RH WIND       PRES   REMARKS
ERIE           SUNNY     74  60  61 VRB7      30.05R
MEADVILLE      SUNNY     69  59  70 N7        30.08R
FRANKLIN*      SUNNY     70  61  73 N5        30.09S
NEW CASTLE     FAIR      74  67  78 NE7       30.07R
BEAVER COUNTY  MOSUNNY   73  68  83 NW5       30.06R
BUTLER*        MOSUNNY   72  66  83 NE6       30.09R
PITTSBURGH INT MOSUNNY   77  66  68 N7        30.05R
PITTSBURGH     MOSUNNY   77  68  73 VRB3      30.04S
INDIANA*       MOSUNNY   73  72  94 CALM      30.09S FOG
LATROBE        MOSUNNY   75  73  94 W12       30.06R
WASHINGTON CO* PTSUNNY   75  68  78 NW3       30.06S
$$

PAZ004>006-010>012-017>019-024>028-033>037-041-042-045-046-049>053-261400-
CENTRAL PENNSYLVANIA

CITY           SKY/WX    TMP DP  RH WIND       PRES   REMARKS
BRADFORD       SUNNY     70  59  68 W8        30.07R
DUBOIS         MOSUNNY   71  64  78 N5        30.06S
CLEARFIELD     MOSUNNY   70  67  90 N5        30.05F
JOHNSTOWN      SUNNY     73  66  78 W6        30.09R
ALTOONA        SUNNY     79  67  66 W7        30.05S
STATE COLLEGE  PTSUNNY   75  70  83 W7        30.04R
WILLIAMSPORT   CLOUDY    74  68  81 W10       29.98R
SELINSGROVE    CLOUDY    73  73 100 N3        30.00R FOG
FT INDIANTOWN  PTSUNNY   73  73 100 SW3       29.98R
CAPITAL CITY   MOSUNNY   76  73  91 W5        29.98S
HARRISBURG     MOSUNNY   77  75  93 NW6       29.97R
YORK           SUNNY     78  74  87 CALM      29.99R
$$

PAZ038>040-043-044-047-048-054-055-060>062-067>071-261400-
EASTERN PENNSYLVANIA

CITY           SKY/WX    TMP DP  RH WIND       PRES   REMARKS
SCRANTON       MOSUNNY   73  68  84 SW6       29.99R
MOUNT POCONO   MOSUNNY   70  65  84 NW10      30.01R
ALLENTOWN      SUNNY     75  69  81 W3        29.96R
QUAKERTOWN*    MOSUNNY   79  72  78 CALM      29.97S
READING        PTSUNNY   73  70  90 W3        29.96R FOG
LANCASTER      MOSUNNY   74  73  97 W6        29.98R FOG
COATESVILLE    SUNNY     79  72  78 NW7       30.00R
POTTSTOWN      SUNNY     76  72  87 NW6       29.98R
BLUE BELL      SUNNY     77  72  83 W6        29.95R
DOYLESTOWN     MOSUNNY   77  71  82 VRB6      29.95R
WILLOW GROVE   NOT AVBL
NORTH PHILA    MOSUNNY   80  73  79 NW8       29.96R
PHILADELPHIA   PTSUNNY   82  72  71 NW9       29.95R
$$



USA.gov is the U.S. government's official web portal to all federal, state and local government web resources and services.